CAPE
96 532 1404 1067 690 547 246 10 0 0 0 0 0 0 0 0 0 0 0 0 0 0 0 0 0 0 0 0 0 0 0 0 0 0 0 0 150 615 714 1182 971 896 1494
66 525 1376 969 661 420 257 66 32 31 17 0 0 0 0 0 0 0 0 0 0 0 0 0 0 0 0 0 0 0 0 0 0 0 0 0 0 5 648 820 1027 641 1616
152 454 812 933 713 535 389 212 130 62 25 1 0 0 0 0 0 0 0 0 0 0 0 0 0 0 0 0 0 0 0 0 0 0 0 0 0 0 0 862 1123 929 1169
226 382 443 1001 782 658 467 293 176 115 49 37 2 0 0 0 0 0 0 0 0 0 0 0 0 0 0 0 0 0 0 0 0 0 0 0 0 0 0 1197 898 1201 894
183 251 335 1059 882 788 607 387 218 156 149 64 12 6 0 0 0 0 0 0 0 0 0 0 0 0 0 24 89 32 27 5 0 0 0 0 0 0 900 1275 1247 1091 981
145 145 692 1043 903 861 735 519 301 273 290 220 79 50 37 25 44 25 0 0 0 0 27 67 82 83 88 59 182 325 278 142 71 0 0 0 0 0 1613 1790 1101 1007 1244
28 22 621 1212 1033 965 895 660 435 377 387 394 362 202 99 193 151 73 59 34 19 6 81 163 243 419 429 371 297 435 239 311 264 67 4 0 0 28 1684 1661 1362 1212 1182
0 0 388 1190 1217 1045 1016 768 617 542 522 580 579 518 498 530 459 263 197 126 124 220 335 445 594 474 447 375 436 479 352 297 131 59 49 2 19 1034 1402 1601 1632 1218 1137
1 0 160 387 879 1393 1229 976 801 683 638 660 692 706 747 767 734 705 627 458 362 516 646 789 582 450 392 363 461 614 556 422 124 28 18 4 152 1267 1236 1398 1310 1257 1399
20 15 162 134 358 590 752 1249 967 820 784 728 840 846 913 932 900 915 829 929 695 916 868 829 576 285 173 158 291 553 721 600 270 46 27 7 259 1038 1223 851 965 1263 1471
143 185 229 258 130 375 387 789 1091 1090 1047 870 893 948 875 560 624 566 853 903 1086 1176 1091 788 548 345 214 116 97 279 529 266 89 23 11 87 246 695 857 1043 1092 1190 1366
107 352 341 348 212 207 245 331 609 492 530 577 477 511 579 416 285 511 565 1191 1330 1545 1178 957 728 466 224 0 0 64 54 112 56 21 0 196 360 526 770 825 867 1282 1375
0 319 455 403 327 224 79 216 567 440 459 491 455 435 555 384 276 328 160 486 1060 1364 787 798 495 303 0 0 0 0 0 4 3 28 60 261 578 550 777 786 693 1013 1312
0 141 595 545 422 329 168 171 415 406 443 564 562 403 435 239 148 114 111 134 354 274 184 25 11 0 0 0 0 0 0 6 53 8 0 372 773 973 1157 685 613 533 992
0 0 457 606 537 461 292 357 376 396 426 596 541 366 379 259 189 193 124 83 99 35 53 12 0 0 0 0 0 34 11 142 160 43 0 196 948 1424 890 700 607 467 533
0 0 141 580 598 588 433 376 506 451 337 451 483 345 387 375 308 235 139 54 118 58 24 14 17 13 1 0 1 5 19 13 5 57 69 167 1122 1107 864 874 796 614 465
0 0 33 706 736 693 563 330 532 517 452 423 396 410 446 462 312 293 204 284 81 37 22 11 0 0 0 0 0 0 1 32 11 22 69 221 457 998 928 1015 892 719 671
0 0 0 473 967 833 697 382 602 604 539 495 501 610 668 583 329 272 267 224 146 101 64 25 0 0 0 0 0 0 0 3 18 24 18 142 123 135 759 964 787 670 717
0 0 0 333 609 767 740 407 639 724 694 544 517 744 749 580 421 409 266 163 90 152 86 58 39 3 4 0 0 1 0 0 6 25 14 25 43 57 36 369 805 682 917
0 0 0 401 524 650 557 682 578 447 374 214 374 559 526 543 517 334 243 202 108 198 169 41 113 0 17 20 15 71 0 0 4 1 9 11 39 57 15 11 113 162 823
0 0 9 790 871 1065 936 1184 900 525 248 94 119 293 388 373 364 240 169 198 148 267 218 2 4 53 6 2 1 0 0 1 0 0 0 0 9 9 0 43 15 39 68
0 69 93 821 1238 1394 1298 1199 756 439 201 155 107 134 228 259 312 243 183 128 101 83 49 0 1 0 0 0 0 0 10 0 0 12 2 0 0 0 1 18 127 59 35
27 436 874 1315 1455 1365 1053 614 257 156 75 104 102 108 146 161 108 110 20 0 4 0 0 0 0 0 0 0 0 0 9 2 0 0 12 2 4 4 12 46 102 47 26
200 847 1486 1287 1362 1222 1107 602 573 252 236 105 118 74 98 192 174 89 57 21 0 0 0 0 0 0 0 0 0 0 0 0 4 0 0 0 0 4 0 12 75 26 191
581 1061 1419 1320 1404 1032 780 461 295 232 69 30 72 138 59 34 88 128 0 0 0 0 0 0 0 0 0 0 0 0 0 0 8 0 0 0 0 0 0 0 8 33 100
716 1318 1318 1262 971 669 435 142 109 194 67 119 75 106 0 0 0 0 0 0 0 0 0 0 0 0 3 6 0 0 0 0 2 1 0 0 0 1 0 21 0 4 24
CIN
-790 -620 -426 -432 -465 -471 -503 -587 0 0 0 0 0 0 0 0 0 0 0 0 0 0 0 0 0 0 0 0 0 0 0 0 0 0 0 0 -67 -15 -9 -4 -7 -14 0
-891 -678 -449 -470 -486 -494 -490 -517 -515 -502 -499 0 0 0 0 0 0 0 0 0 0 0 0 0 0 0 0 0 0 0 0 0 0 0 0 0 0 -8 -12 -6 -6 -24 -0
-842 -705 -531 -462 -457 -458 -455 -473 -475 -484 -492 -50 0 0 0 0 0 0 0 0 0 0 0 0 0 0 0 0 0 0 0 0 0 0 0 0 0 0 0 -6 -5 -14 -7
-831 -733 -668 -490 -468 -458 -453 -474 -468 -462 -454 -446 -166 0 0 0 0 0 0 0 0 0 0 0 0 0 0 0 0 0 0 0 0 0 0 0 0 0 0 -2 -6 -5 -10
-835 -799 -760 -527 -489 -459 -443 -475 -474 -457 -409 -425 -395 -353 0 0 0 0 0 0 0 0 0 0 0 0 0 -7 -34 -69 -143 -131 0 0 0 0 0 0 -15 -4 -5 -5 -8
-870 -847 -671 -540 -514 -482 -454 -457 -488 -453 -404 -387 -415 -417 -417 -431 -371 -380 0 0 0 0 -185 -80 -44 -20 -10 -43 -1 -3 -0 -4 -44 0 0 0 0 0 -4 -4 -8 -8 -3
-902 -692 -663 -512 -491 -468 -427 -430 -447 -444 -402 -369 -338 -352 -369 -309 -311 -353 -333 -314 -298 -60 -154 -72 -29 -0 -1 -0 0 0 -2 -3 -12 -98 -44 0 0 -215 -4 -8 -8 -8 -3
0 0 -758 -527 -503 -487 -444 -437 -423 -411 -407 -360 -320 -297 -271 -227 -224 -251 -261 -266 -235 -152 -69 -26 -1 0 -0 -4 -3 -1 -1 -3 -36 -138 -169 -102 -95 -16 -7 -13 -10 -14 -9
-386 0 -778 -671 -561 -453 -430 -443 -444 -439 -426 -398 -342 -294 -246 -193 -157 -129 -131 -152 -153 -67 -23 -1 -4 -10 -15 -7 -0 -0 -0 -3 -58 -190 -241 -242 -67 -4 -4 -10 -22 -19 -11
-668 -729 -800 -807 -676 -613 -559 -404 -425 -429 -410 -420 -365 -307 -241 -183 -140 -95 -98 -67 -81 -19 -18 -9 -24 -70 -107 -91 -25 0 0 -0 -6 -126 -200 -329 -41 -4 -1 -20 -28 -21 -5
-525 -679 -736 -766 -801 -671 -659 -511 -380 -344 -337 -361 -354 -320 -282 -327 -244 -209 -111 -89 -28 -13 -19 -36 -57 -84 -113 -153 -122 -10 0 -17 -76 -117 -182 -163 -45 -4 -5 -12 -30 -24 -3
-396 -635 -746 -738 -780 -755 -680 -620 -478 -477 -437 -435 -474 -468 -417 -427 -428 -263 -206 -44 -12 -0 -17 -40 -62 -73 -117 0 0 -145 -133 -71 -116 -144 0 -59 -30 -7 -3 -15 -29 -11 -8
0 -526 -678 -726 -741 -764 -744 -684 -501 -523 -507 -477 -502 -502 -447 -461 -449 -364 -409 -218 -51 -11 -55 -62 -122 -153 0 0 0 0 0 -218 -26 -143 -108 -34 -9 -5 -2 -8 -22 -13 -8
0 -477 -604 -687 -709 -745 -743 -735 -596 -548 -540 -483 -488 -529 -482 -560 -557 -512 -457 -406 -260 -244 -256 -382 -349 0 0 0 0 0 0 -182 -132 -127 0 -40 -17 -5 0 -4 -15 -26 -18
0 0 -588 -652 -686 -725 -708 -657 -641 -605 -563 -499 -499 -560 -523 -557 -536 -459 -424 -479 -393 -471 -366 -408 0 -17 0 0 0 -118 -93 -79 -87 -148 0 -62 -18 -4 -5 -8 -13 -25 -23
0 0 -600 -648 -676 -667 -633 -660 -650 -623 -616 -565 -528 -584 -539 -512 -484 -454 -408 -490 -371 -399 -381 -363 -303 -251 -86 0 -56 -77 -78 -77 -83 -102 -136 -106 -19 -10 -8 -5 -9 -11 -17
0 0 -735 -617 -651 -651 -617 -690 -634 -608 -574 -559 -569 -553 -517 -479 -506 -417 -377 -282 -374 -380 -379 -329 0 0 0 0 0 0 -6 -61 -98 -70 -98 -115 -53 -15 -15 -10 -6 -6 -0
0 0 0 -528 -646 -605 -563 -688 -593 -581 -566 -533 -524 -472 -428 -441 -477 -411 -348 -324 -322 -304 -271 -238 -5 0 0 0 0 0 0 -88 -85 -86 -95 -102 -84 -65 -31 -16 -19 -8 -0
0 0 0 -589 -650 -628 -566 -718 -582 -546 -501 -516 -501 -417 -382 -411 -384 -336 -322 -293 -313 -236 -217 -169 -143 -15 -60 0 0 -57 0 0 -135 -83 -100 -95 -115 -105 -112 -69 -31 -22 -1
0 0 0 -620 -655 -662 -737 -638 -604 -619 -595 -655 -554 -446 -410 -324 -279 -301 -248 -240 -284 -178 -131 -150 -90 0 -123 -109 -92 -47 0 0 -162 -35 -92 -87 -88 -132 -139 -148 -115 -89 -20
0 0 -603 -572 -681 -609 -588 -456 -450 -534 -616 -669 -609 -461 -352 -284 -252 -208 -238 -221 -232 -123 -102 -72 -122 -80 -99 -126 -78 0 0 -88 -1 0 0 0 -86 -117 -0 -128 -167 -152 -113
0 -403 -624 -604 -609 -541 -475 -382 -483 -505 -592 -519 -517 -414 -338 -287 -214 -221 -206 -222 -204 -154 -128 0 0 0 0 0 -2 -39 -20 -9 0 -139 -108 0 0 0 -27 -100 -120 -153 -166
-464 -461 -553 -561 -503 -492 -582 -587 -650 -622 -589 -507 -494 -442 -362 -292 -282 -243 -308 0 -102 0 0 0 0 0 0 0 0 0 -35 -55 0 0 -138 -104 -60 -144 -148 -98 -102 -151 -174
-591 -625 -510 -517 -455 -413 -452 -539 -433 -524 -429 -491 -439 -448 -363 -251 -212 -222 -217 -204 0 0 0 0 0 0 0 0 0 0 0 0 -71 0 0 0 0 -128 0 -150 -124 -141 -109
-705 -580 -448 -432 -373 -405 -484 -524 -500 -444 -496 -545 -453 -344 -332 -294 -239 -197 0 0 0 0 0 0 0 0 0 0 0 0 0 0 -64 -5 0 0 -0 0 0 0 -149 -107 -133
-630 -467 -413 -401 -416 -476 -532 -566 -493 -394 -444 -394 -423 -338 0 0 0 0 0 0 0 0 0 0 0 0 -151 -154 0 0 0 0 -100 -76 0 0 0 -32 -27 -137 0 -47 -125
Wind_Speed
7 14 21 20 19 18 19 20 18 17 16 16 16 15 13 12 12 11 10 8 7 7 6 5 4 2 1 1 2 3 3 3 4 4 4 4 5 4 3 8 11 8 13
17 17 22 21 19 19 18 19 18 16 16 16 15 15 14 13 11 11 10 8 6 5 5 4 3 2 1 1 1 1 4 3 3 4 4 5 6 5 6 5 8 9 11
17 16 17 19 19 18 18 18 18 16 16 16 15 16 15 13 12 11 10 8 7 6 4 3 3 2 2 3 2 3 4 4 5 5 6 3 5 8 6 7 8 11 12
16 15 15 21 21 20 20 20 20 18 17 16 16 16 15 15 13 12 10 9 8 7 6 4 4 4 4 4 4 4 4 5 6 7 3 4 5 10 11 10 9 12 12
13 14 16 23 22 22 21 21 21 20 18 17 17 16 16 15 14 13 12 11 10 8 7 7 6 6 6 7 7 6 5 6 7 6 4 4 4 9 15 13 10 11 13
14 14 19 23 23 23 23 22 22 22 20 19 18 17 17 16 15 14 13 12 10 9 9 9 9 9 9 9 7 7 7 7 8 5 5 5 6 10 6 11 12 11 13
14 13 16 23 22 23 23 22 22 23 22 21 19 19 18 17 17 16 15 13 11 10 11 10 11 10 9 9 9 9 8 8 5 5 5 4 6 11 10 12 12 11 13
18 16 16 23 24 24 24 24 23 22 23 22 21 20 18 17 17 16 15 14 12 12 12 11 10 10 8 7 9 11 10 10 7 4 5 4 8 9 11 11 12 12 13
13 15 14 16 20 23 23 24 24 24 24 23 22 20 19 17 15 15 14 14 13 13 13 13 12 11 10 10 9 10 12 13 6 4 5 4 8 12 11 10 12 11 15
10 12 14 15 15 16 15 24 24 24 24 24 23 21 19 17 16 15 13 13 14 13 14 14 13 12 10 11 11 11 13 14 6 5 3 4 11 13 14 14 13 12 13
8 12 12 14 15 15 14 15 20 22 21 21 21 21 16 8 9 11 11 13 14 15 14 13 12 11 10 11 12 13 14 3 4 3 3 9 13 13 14 14 13 13 13
14 11 12 13 14 13 11 11 12 11 10 11 11 12 8 7 7 8 10 14 15 16 14 13 12 12 10 3 3 9 3 4 4 4 4 14 14 15 14 13 14 12 14
13 12 17 16 15 15 12 8 7 7 7 7 10 9 8 6 5 4 3 3 5 12 4 7 5 4 5 4 4 4 5 5 4 5 9 15 13 16 16 14 11 12 13
7 13 17 16 15 15 10 10 10 9 8 8 9 10 7 5 5 4 3 4 4 3 5 4 3 4 5 5 6 5 6 5 4 4 6 16 16 17 16 14 12 11 12
8 9 16 16 16 15 16 10 10 11 9 9 9 9 7 6 6 4 4 4 4 4 4 4 5 4 5 6 5 6 7 5 6 3 3 14 14 12 14 14 15 15 14
11 8 13 16 17 15 16 15 12 11 10 9 9 9 11 8 7 5 5 5 4 5 4 4 5 5 5 4 6 5 6 5 5 5 4 4 13 12 15 15 15 15 15
9 9 14 17 17 18 19 14 11 10 9 9 9 11 13 11 9 9 5 4 4 4 5 4 3 2 3 3 5 5 4 5 5 5 5 4 6 13 13 14 14 14 15
9 10 9 10 16 16 16 12 11 10 10 9 8 9 12 12 10 6 5 4 5 5 5 4 4 4 4 4 4 4 3 4 5 5 4 3 4 3 9 14 12 12 13
11 10 7 8 13 16 13 9 10 10 9 7 7 7 10 10 9 7 5 5 6 4 4 3 3 4 4 4 4 4 3 4 4 3 6 5 6 5 4 9 12 12 12
8 9 5 10 10 10 6 6 4 6 5 6 7 6 9 8 9 6 5 5 5 4 4 3 5 4 4 4 3 4 4 4 3 4 5 4 5 5 5 5 3 5 12
9 9 11 10 9 10 9 8 7 6 7 5 5 8 7 5 7 7 4 4 4 5 6 5 3 5 4 3 2 1 2 4 3 4 3 3 4 4 5 4 4 3 4
8 9 7 9 13 11 9 7 5 6 3 5 5 8 8 7 7 6 6 5 6 4 4 3 4 1 3 4 3 2 2 2 3 4 3 4 6 4 5 5 6 5 5
9 9 9 9 9 8 11 9 6 6 5 3 3 3 5 7 7 7 7 6 5 3 4 3 4 6 3 2 4 4 2 4 1 1 5 4 4 3 3 5 6 5 5
7 6 8 10 11 8 11 10 13 5 5 3 4 4 5 6 7 6 6 5 5 4 4 4 4 3 3 3 1 3 2 2 2 2 2 2 2 4 4 2 4 5 5
9 9 10 11 9 7 9 11 9 6 3 3 3 8 6 4 5 5 6 5 4 4 4 5 4 4 3 3 3 2 2 1 1 2 2 0 2 3 3 2 4 3 5
9 11 11 12 8 8 9 9 9 9 7 5 5 5 4 3 3 4 5 4 4 4 5 4 5 5 5 4 3 3 3 4 3 3 2 1 3 2 3 3 3 1 2
Wind_Direction
190 164 169 166 160 151 144 140 141 141 141 135 134 132 129 123 120 120 116 111 110 114 113 106 103 93 68 40 18 349 351 347 346 352 346 343 331 323 192 163 151 148 135
149 162 169 164 160 153 149 146 146 148 146 140 140 139 138 135 134 134 132 128 127 127 125 123 124 143 190 202 236 300 310 319 317 312 309 313 317 311 267 198 184 155 146
148 155 162 162 160 155 155 152 150 154 151 150 152 148 146 147 148 147 145 147 154 155 156 155 162 203 234 235 229 237 263 285 297 294 292 326 307 293 281 217 176 162 161
146 154 163 166 164 163 163 159 157 158 159 160 158 157 158 158 160 160 160 167 174 178 182 197 209 226 244 250 240 239 252 262 276 290 313 301 306 299 287 217 183 177 170
154 163 168 169 169 167 168 166 163 160 164 167 164 167 167 167 169 169 172 179 185 192 202 216 222 235 247 246 249 242 243 257 266 278 293 292 293 290 287 203 176 180 181
169 171 172 173 174 171 173 174 168 165 169 172 173 175 176 175 178 178 183 189 192 199 212 223 230 238 245 252 257 238 243 248 259 271 277 290 289 282 148 149 170 179 180
173 176 173 177 178 176 178 176 176 171 172 176 179 181 184 184 185 185 190 195 199 207 219 228 238 251 248 259 254 236 229 242 246 255 264 276 288 279 177 158 168 178 178
169 177 178 184 184 181 180 180 179 181 177 180 182 185 188 192 191 194 195 197 202 211 223 236 238 237 233 244 248 242 236 236 247 252 273 282 275 246 168 155 160 172 174
173 170 181 186 189 187 186 184 183 186 185 182 184 189 190 192 195 199 199 201 206 215 226 232 235 236 237 242 242 244 241 241 232 245 267 266 292 220 191 182 163 173 172
164 177 183 184 190 192 190 192 191 189 191 186 185 189 191 191 194 203 206 208 212 221 222 223 232 237 241 246 249 246 243 243 242 245 247 258 277 219 213 194 168 172 173
183 186 186 185 189 193 193 198 197 198 197 194 189 188 190 184 189 202 210 214 217 220 222 225 233 239 240 247 247 246 246 232 238 241 251 256 260 237 212 193 169 181 177
197 193 186 187 191 191 195 194 195 198 202 200 199 190 180 176 184 195 216 223 222 223 224 225 234 243 250 214 241 254 239 223 226 234 243 259 259 246 223 207 185 181 181
184 188 190 191 187 185 191 186 192 198 194 203 198 188 175 173 188 197 209 228 214 227 224 221 232 241 223 216 225 229 238 219 215 229 241 251 256 250 229 214 209 183 190
224 182 191 190 187 188 185 191 190 197 192 200 192 180 174 170 184 205 197 201 196 201 206 207 219 239 237 229 222 231 241 219 211 213 240 246 250 250 215 217 205 204 196
243 182 193 183 188 189 189 188 191 195 197 195 185 184 178 177 181 190 202 184 203 184 209 207 219 225 230 233 231 223 238 222 222 198 219 251 251 192 203 212 202 201 206
244 222 191 190 189 183 192 190 192 188 193 187 186 187 184 176 180 180 190 189 198 189 205 200 213 218 231 207 237 240 216 227 244 207 218 252 230 196 204 209 214 213 208
235 229 179 188 183 185 193 190 186 184 179 185 186 186 183 179 181 185 179 182 183 188 193 197 184 185 218 223 235 256 273 243 232 220 230 213 199 193 201 208 220 224 218
221 206 198 179 179 188 192 187 184 178 174 180 178 179 183 183 176 153 159 176 181 184 184 183 189 215 222 221 238 249 242 269 234 230 219 188 190 195 208 216 223 217 223
203 209 191 180 184 188 190 176 178 167 167 167 165 169 178 174 165 160 165 182 174 178 186 193 214 213 219 227 228 251 254 257 232 228 211 205 205 197 212 225 218 213 221
219 216 203 189 185 177 151 131 121 133 137 145 160 157 161 166 167 151 175 179 160 159 185 230 223 222 215 214 219 244 263 250 229 219 223 205 201 194 208 223 226 212 213
194 182 193 168 169 154 161 151 151 153 146 130 139 139 145 164 161 169 181 169 169 175 197 214 228 219 245 202 138 272 288 286 256 229 229 211 198 216 228 217 215 194 212
204 205 172 178 168 168 167 167 118 139 111 142 145 162 173 177 165 170 162 176 181 186 224 217 195 203 247 186 156 104 211 308 271 238 211 224 217 194 205 214 211 200 189
193 189 168 162 151 148 126 112 92 83 77 89 73 123 160 159 155 156 166 164 169 178 210 210 199 184 195 207 223 149 142 212 135 326 233 219 228 198 205 210 217 193 186
172 135 125 126 125 135 134 121 139 131 142 158 149 126 130 148 155 157 149 154 177 184 196 209 200 186 151 188 234 243 79 127 154 327 318 238 220 245 193 187 212 193 191
144 133 124 120 120 134 114 125 131 123 129 134 107 121 132 154 148 149 151 165 185 187 200 202 199 193 186 172 176 157 168 115 118 139 241 256 56 348 48 161 229 178 179
123 116 122 124 124 116 110 122 127 137 133 111 108 120 130 124 135 150 151 179 189 188 202 211 211 204 200 197 187 191 170 170 180 176 174 190 145 20 68 69 30 339 174